Time,TemperatureF,DewpointF,PressureIn,WindDirection,WindDirectionDegrees,WindSpeedMPH,WindSpeedGustMPH,Humidity,HourlyPrecipIn,Conditions,Clouds,dailyrainin,SoftwareType,DateUTC
2013-08-25 00:01:00,65.8,58.0,30.27,SSE,161,1.0,3.0,76,0.00,,---,0.00,VWS V13.01,2013-08-25 04:01:00,
2013-08-25 00:02:00,65.8,58.0,30.27,SE,141,3.0,4.0,76,0.00,,---,0.00,VWS V13.01,2013-08-25 04:02:00,
2013-08-25 00:07:00,65.9,57.8,30.27,ESE,123,4.0,4.0,75,0.00,,---,0.00,VWS V13.01,2013-08-25 04:07:00,
2013-08-25 00:12:00,65.9,57.8,30.28,SE,140,1.0,3.0,75,0.00,,---,0.00,VWS V13.01,2013-08-25 04:12:00,
2013-08-25 00:17:00,66.0,57.9,30.27,SSE,158,0.0,3.0,75,0.00,,---,0.00,VWS V13.01,2013-08-25 04:17:00,
2013-08-25 00:22:00,66.0,57.9,30.27,SSE,160,0.0,4.0,75,0.00,,---,0.00,VWS V13.01,2013-08-25 04:22:00,
2013-08-25 00:27:00,65.9,57.8,30.27,SSE,150,0.0,4.0,75,0.00,,---,0.00,VWS V13.01,2013-08-25 04:27:00,
2013-08-25 00:32:00,65.7,58.3,30.28,SE,136,0.0,1.0,77,0.00,,---,0.00,VWS V13.01,2013-08-25 04:32:00,
2013-08-25 00:37:00,65.4,58.0,30.27,SE,136,0.0,2.0,77,0.00,,---,0.00,VWS V13.01,2013-08-25 04:37:00,
2013-08-25 00:42:00,65.0,58.0,30.27,SE,136,0.0,0.0,78,0.00,,---,0.00,VWS V13.01,2013-08-25 04:42:00,
2013-08-25 00:47:00,64.6,57.6,30.27,SE,136,0.0,1.0,78,0.00,,---,0.00,VWS V13.01,2013-08-25 04:47:00,
2013-08-25 00:52:00,64.3,57.3,30.27,SE,136,1.0,2.0,78,0.00,,---,0.00,VWS V13.01,2013-08-25 04:52:00,
2013-08-25 00:57:00,64.1,57.5,30.27,ESE,104,0.0,3.0,79,0.00,,---,0.00,VWS V13.01,2013-08-25 04:57:00,
2013-08-25 01:02:00,64.1,57.1,30.27,ESE,114,0.0,2.0,78,0.00,,---,0.00,VWS V13.01,2013-08-25 05:02:00,
2013-08-25 01:07:00,64.2,57.2,30.27,East,90,0.0,3.0,78,0.00,,---,0.00,VWS V13.01,2013-08-25 05:07:00,
2013-08-25 01:12:00,64.5,57.1,30.27,East,90,3.0,5.0,77,0.00,,---,0.00,VWS V13.01,2013-08-25 05:12:00,
2013-08-25 01:17:00,64.8,57.4,30.27,SE,130,0.0,5.0,77,0.00,,---,0.00,VWS V13.01,2013-08-25 05:17:00,
2013-08-25 01:22:00,64.9,57.2,30.27,East,93,0.0,3.0,76,0.00,,---,0.00,VWS V13.01,2013-08-25 05:22:00,
2013-08-25 01:27:00,65.0,57.3,30.27,ESE,123,0.0,3.0,76,0.00,,---,0.00,VWS V13.01,2013-08-25 05:27:00,
2013-08-25 01:32:00,65.0,56.9,30.27,ESE,116,1.0,3.0,75,0.00,,---,0.00,VWS V13.01,2013-08-25 05:32:00,
2013-08-25 01:37:00,65.0,56.9,30.27,ESE,115,1.0,3.0,75,0.00,,---,0.00,VWS V13.01,2013-08-25 05:37:00,
2013-08-25 01:42:00,64.9,56.8,30.27,ESE,121,0.0,2.0,75,0.00,,---,0.00,VWS V13.01,2013-08-25 05:42:00,
2013-08-25 01:47:00,64.8,57.1,30.27,ESE,115,0.0,4.0,76,0.00,,---,0.00,VWS V13.01,2013-08-25 05:47:00,
2013-08-25 01:52:00,64.8,56.7,30.27,East,101,0.0,4.0,75,0.00,,---,0.00,VWS V13.01,2013-08-25 05:52:00,
2013-08-25 01:57:00,64.8,56.7,30.27,SE,126,0.0,4.0,75,0.00,,---,0.00,VWS V13.01,2013-08-25 05:57:00,
2013-08-25 02:02:00,64.7,56.6,30.27,SSE,153,0.0,2.0,75,0.00,,---,0.00,VWS V13.01,2013-08-25 06:02:00,
2013-08-25 02:07:00,64.6,56.5,30.27,SE,131,1.0,4.0,75,0.00,,---,0.00,VWS V13.01,2013-08-25 06:07:00,
2013-08-25 02:12:00,64.5,56.4,30.27,SE,131,1.0,2.0,75,0.00,,---,0.00,VWS V13.01,2013-08-25 06:12:00,
2013-08-25 02:17:00,64.2,56.8,30.27,SSW,192,0.0,3.0,77,0.00,,---,0.00,VWS V13.01,2013-08-25 06:17:00,
2013-08-25 02:22:00,63.8,57.2,30.27,SW,219,0.0,2.0,79,0.00,,---,0.00,VWS V13.01,2013-08-25 06:22:00,
2013-08-25 02:28:00,63.3,56.7,30.27,SW,219,0.0,2.0,79,0.00,,---,0.00,VWS V13.01,2013-08-25 06:28:00,
2013-08-25 02:33:00,62.7,56.5,30.27,ESE,119,0.0,2.0,80,0.00,,---,0.00,VWS V13.01,2013-08-25 06:33:00,
2013-08-25 02:38:00,62.4,55.8,30.27,ESE,117,1.0,2.0,79,0.00,,---,0.00,VWS V13.01,2013-08-25 06:38:00,
2013-08-25 02:43:00,62.5,55.9,30.28,SE,146,1.0,3.0,79,0.00,,---,0.00,VWS V13.01,2013-08-25 06:43:00,
2013-08-25 02:48:00,62.6,56.3,30.28,SE,141,1.0,5.0,80,0.00,,---,0.00,VWS V13.01,2013-08-25 06:48:00,
2013-08-25 02:53:00,62.5,55.9,30.28,SE,141,0.0,1.0,79,0.00,,---,0.00,VWS V13.01,2013-08-25 06:53:00,
2013-08-25 02:58:00,62.3,56.1,30.28,SE,141,0.0,2.0,80,0.00,,---,0.00,VWS V13.01,2013-08-25 06:58:00,
2013-08-25 03:03:00,62.1,55.9,30.28,ENE,71,0.0,2.0,80,0.00,,---,0.00,VWS V13.01,2013-08-25 07:03:00,
2013-08-25 03:08:00,61.8,55.6,30.28,ENE,71,0.0,2.0,80,0.00,,---,0.00,VWS V13.01,2013-08-25 07:08:00,
2013-08-25 03:13:00,61.7,55.5,30.28,ENE,70,0.0,1.0,80,0.00,,---,0.00,VWS V13.01,2013-08-25 07:13:00,
2013-08-25 03:18:00,61.5,55.6,30.28,ENE,71,0.0,1.0,81,0.00,,---,0.00,VWS V13.01,2013-08-25 07:18:00,
2013-08-25 03:23:00,61.5,55.6,30.28,South,178,1.0,3.0,81,0.00,,---,0.00,VWS V13.01,2013-08-25 07:23:00,
2013-08-25 03:28:00,61.3,55.8,30.28,SSW,196,0.0,3.0,82,0.00,,---,0.00,VWS V13.01,2013-08-25 07:28:00,
2013-08-25 03:33:00,61.1,55.6,30.28,SSW,196,0.0,1.0,82,0.00,,---,0.00,VWS V13.01,2013-08-25 07:33:00,
2013-08-25 03:38:00,60.9,55.4,30.28,SSW,196,0.0,1.0,82,0.00,,---,0.00,VWS V13.01,2013-08-25 07:38:00,
2013-08-25 03:43:00,60.5,55.3,30.28,SSW,196,0.0,0.0,83,0.00,,---,0.00,VWS V13.01,2013-08-25 07:43:00,
2013-08-25 03:48:00,60.2,55.0,30.28,SE,132,0.0,2.0,83,0.00,,---,0.00,VWS V13.01,2013-08-25 07:48:00,
2013-08-25 03:53:00,60.0,55.2,30.28,SE,138,0.0,1.0,84,0.00,,---,0.00,VWS V13.01,2013-08-25 07:53:00,
2013-08-25 03:58:00,59.8,55.3,30.28,SE,138,0.0,1.0,85,0.00,,---,0.00,VWS V13.01,2013-08-25 07:58:00,
2013-08-25 04:03:00,59.5,55.3,30.28,SE,138,0.0,0.0,86,0.00,,---,0.00,VWS V13.01,2013-08-25 08:03:00,
2013-08-25 04:08:00,59.3,55.1,30.28,SE,138,0.0,0.0,86,0.00,,---,0.00,VWS V13.01,2013-08-25 08:08:00,
2013-08-25 04:13:00,59.1,55.2,30.29,SE,138,0.0,0.0,87,0.00,,---,0.00,VWS V13.01,2013-08-25 08:13:00,
2013-08-25 04:18:00,58.8,55.0,30.28,SE,138,0.0,0.0,87,0.00,,---,0.00,VWS V13.01,2013-08-25 08:18:00,
2013-08-25 04:23:00,58.5,54.7,30.29,SE,138,0.0,0.0,87,0.00,,---,0.00,VWS V13.01,2013-08-25 08:23:00,
2013-08-25 04:28:00,58.3,54.8,30.29,SE,138,0.0,1.0,88,0.00,,---,0.00,VWS V13.01,2013-08-25 08:28:00,
2013-08-25 04:33:00,58.1,54.6,30.29,SE,138,0.0,0.0,88,0.00,,---,0.00,VWS V13.01,2013-08-25 08:33:00,
2013-08-25 04:38:00,58.0,54.8,30.29,SW,215,0.0,2.0,89,0.00,,---,0.00,VWS V13.01,2013-08-25 08:38:00,
2013-08-25 04:43:00,57.8,54.6,30.29,SW,215,0.0,0.0,89,0.00,,---,0.00,VWS V13.01,2013-08-25 08:43:00,
2013-08-25 04:48:00,57.6,54.4,30.30,SW,215,0.0,1.0,89,0.00,,---,0.00,VWS V13.01,2013-08-25 08:48:00,
2013-08-25 04:53:00,57.5,54.6,30.30,SW,215,0.0,1.0,90,0.00,,---,0.00,VWS V13.01,2013-08-25 08:53:00,
2013-08-25 04:58:00,57.5,54.6,30.30,SW,215,0.0,1.0,90,0.00,,---,0.00,VWS V13.01,2013-08-25 08:58:00,
2013-08-25 05:03:00,57.5,54.6,30.30,SW,215,0.0,0.0,90,0.00,,---,0.00,VWS V13.01,2013-08-25 09:03:00,
2013-08-25 05:08:00,57.4,54.5,30.31,SW,215,0.0,0.0,90,0.00,,---,0.00,VWS V13.01,2013-08-25 09:08:00,
2013-08-25 05:13:00,57.2,54.3,30.31,SW,215,0.0,1.0,90,0.00,,---,0.00,VWS V13.01,2013-08-25 09:13:00,
2013-08-25 05:18:00,57.1,54.2,30.31,SW,215,0.0,1.0,90,0.00,,---,0.00,VWS V13.01,2013-08-25 09:18:00,
2013-08-25 05:23:00,56.9,54.0,30.31,SW,215,0.0,1.0,90,0.00,,---,0.00,VWS V13.01,2013-08-25 09:23:00,
2013-08-25 05:28:00,56.8,54.2,30.31,SW,215,0.0,1.0,91,0.00,,---,0.00,VWS V13.01,2013-08-25 09:28:00,
2013-08-25 05:33:00,56.6,54.0,30.31,SW,215,0.0,0.0,91,0.00,,---,0.00,VWS V13.01,2013-08-25 09:33:00,
2013-08-25 05:38:00,56.5,53.9,30.31,SW,215,0.0,0.0,91,0.00,,---,0.00,VWS V13.01,2013-08-25 09:38:00,
2013-08-25 05:43:00,56.4,53.8,30.31,SW,215,0.0,0.0,91,0.00,,---,0.00,VWS V13.01,2013-08-25 09:43:00,
2013-08-25 05:48:00,56.3,54.0,30.31,SW,215,0.0,0.0,92,0.00,,---,0.00,VWS V13.01,2013-08-25 09:48:00,
2013-08-25 05:53:00,56.2,53.9,30.32,SW,215,0.0,0.0,92,0.00,,---,0.00,VWS V13.01,2013-08-25 09:53:00,
2013-08-25 05:58:00,56.1,53.8,30.31,SW,215,0.0,1.0,92,0.00,,---,0.00,VWS V13.01,2013-08-25 09:58:00,
2013-08-25 06:03:00,56.0,53.7,30.32,SW,215,0.0,0.0,92,0.00,,---,0.00,VWS V13.01,2013-08-25 10:03:00,
2013-08-25 06:08:00,55.9,53.6,30.32,SW,215,0.0,0.0,92,0.00,,---,0.00,VWS V13.01,2013-08-25 10:08:00,
2013-08-25 06:13:00,55.7,53.4,30.32,SW,215,0.0,0.0,92,0.00,,---,0.00,VWS V13.01,2013-08-25 10:13:00,
2013-08-25 06:18:00,55.7,53.4,30.32,SW,215,0.0,0.0,92,0.00,,---,0.00,VWS V13.01,2013-08-25 10:18:00,
2013-08-25 06:23:00,55.5,53.2,30.32,SW,215,0.0,0.0,92,0.00,,---,0.00,VWS V13.01,2013-08-25 10:23:00,
2013-08-25 06:28:00,55.4,53.1,30.32,SW,215,0.0,0.0,92,0.00,,---,0.00,VWS V13.01,2013-08-25 10:28:00,
2013-08-25 06:33:00,55.3,53.0,30.32,SW,215,0.0,0.0,92,0.00,,---,0.00,VWS V13.01,2013-08-25 10:33:00,
2013-08-25 06:38:00,55.2,52.9,30.32,SW,215,0.0,0.0,92,0.00,,---,0.00,VWS V13.01,2013-08-25 10:38:00,
2013-08-25 06:43:00,55.1,53.1,30.32,SW,215,0.0,0.0,93,0.00,,---,0.00,VWS V13.01,2013-08-25 10:43:00,
2013-08-25 06:48:00,55.1,53.1,30.33,SW,215,0.0,0.0,93,0.00,,---,0.00,VWS V13.01,2013-08-25 10:48:00,
2013-08-25 06:53:00,55.0,53.0,30.33,SW,215,0.0,0.0,93,0.00,,---,0.00,VWS V13.01,2013-08-25 10:53:00,
2013-08-25 06:58:00,55.0,53.0,30.33,SW,215,0.0,0.0,93,0.00,,---,0.00,VWS V13.01,2013-08-25 10:58:00,
2013-08-25 07:03:00,55.0,53.0,30.33,SW,215,0.0,0.0,93,0.00,,---,0.00,VWS V13.01,2013-08-25 11:03:00,
2013-08-25 07:08:00,55.1,53.4,30.34,SW,215,0.0,0.0,94,0.00,,---,0.00,VWS V13.01,2013-08-25 11:08:00,
2013-08-25 07:13:00,55.1,53.4,30.34,SW,215,0.0,0.0,94,0.00,,---,0.00,VWS V13.01,2013-08-25 11:13:00,
2013-08-25 07:18:00,55.2,53.5,30.33,SW,215,0.0,0.0,94,0.00,,---,0.00,VWS V13.01,2013-08-25 11:18:00,
2013-08-25 07:23:00,55.7,54.3,30.33,SW,215,0.0,0.0,95,0.00,,---,0.00,VWS V13.01,2013-08-25 11:23:00,
2013-08-25 07:28:00,56.1,54.7,30.33,SW,215,0.0,0.0,95,0.00,,---,0.00,VWS V13.01,2013-08-25 11:28:00,
2013-08-25 07:33:00,56.6,55.2,30.33,SW,215,0.0,0.0,95,0.00,,---,0.00,VWS V13.01,2013-08-25 11:33:00,
2013-08-25 07:38:00,56.9,55.2,30.34,SW,215,0.0,1.0,94,0.00,,---,0.00,VWS V13.01,2013-08-25 11:38:00,
2013-08-25 07:43:00,57.3,55.6,30.34,SW,215,0.0,0.0,94,0.00,,---,0.00,VWS V13.01,2013-08-25 11:43:00,
2013-08-25 07:48:00,57.8,56.1,30.34,SW,215,0.0,1.0,94,0.00,,---,0.00,VWS V13.01,2013-08-25 11:48:00,
2013-08-25 07:53:00,58.6,56.6,30.34,SW,215,0.0,0.0,93,0.00,,---,0.00,VWS V13.01,2013-08-25 11:53:00,
2013-08-25 07:58:00,59.4,57.4,30.34,SW,215,0.0,0.0,93,0.00,,---,0.00,VWS V13.01,2013-08-25 11:58:00,
2013-08-25 08:03:00,60.0,57.4,30.34,SW,215,0.0,0.0,91,0.00,,---,0.00,VWS V13.01,2013-08-25 12:03:00,
2013-08-25 08:08:00,60.6,57.3,30.35,SW,215,0.0,0.0,89,0.00,,---,0.00,VWS V13.01,2013-08-25 12:08:00,
2013-08-25 08:13:00,61.1,57.5,30.35,SW,215,0.0,1.0,88,0.00,,---,0.00,VWS V13.01,2013-08-25 12:13:00,
2013-08-25 08:18:00,61.6,57.7,30.34,SW,215,0.0,1.0,87,0.00,,---,0.00,VWS V13.01,2013-08-25 12:18:00,
2013-08-25 08:23:00,62.2,58.0,30.34,SW,215,0.0,0.0,86,0.00,,---,0.00,VWS V13.01,2013-08-25 12:23:00,
2013-08-25 08:28:00,62.8,58.2,30.34,SW,215,0.0,0.0,85,0.00,,---,0.00,VWS V13.01,2013-08-25 12:28:00,
2013-08-25 08:33:00,63.4,58.8,30.34,SW,215,0.0,2.0,85,0.00,,---,0.00,VWS V13.01,2013-08-25 12:33:00,
2013-08-25 08:38:00,64.0,58.7,30.34,SW,215,0.0,2.0,83,0.00,,---,0.00,VWS V13.01,2013-08-25 12:38:00,
2013-08-25 08:43:00,64.5,59.2,30.34,SW,215,0.0,1.0,83,0.00,,---,0.00,VWS V13.01,2013-08-25 12:43:00,
2013-08-25 08:48:00,65.1,59.8,30.34,SW,215,0.0,1.0,83,0.00,,---,0.00,VWS V13.01,2013-08-25 12:48:00,
2013-08-25 08:53:00,65.9,59.9,30.34,SW,215,0.0,1.0,81,0.00,,---,0.00,VWS V13.01,2013-08-25 12:53:00,
2013-08-25 08:58:00,66.8,60.1,30.35,SW,215,0.0,2.0,79,0.00,,---,0.00,VWS V13.01,2013-08-25 12:58:00,
2013-08-25 09:03:00,67.5,59.7,30.34,SW,215,0.0,1.0,76,0.00,,---,0.00,VWS V13.01,2013-08-25 13:03:00,
2013-08-25 09:08:00,68.3,60.5,30.34,SW,215,0.0,1.0,76,0.00,,---,0.00,VWS V13.01,2013-08-25 13:08:00,
2013-08-25 09:13:00,68.6,60.0,30.34,SW,215,0.0,2.0,74,0.00,,---,0.00,VWS V13.01,2013-08-25 13:13:00,
2013-08-25 09:18:00,69.0,60.4,30.34,SW,216,0.0,2.0,74,0.00,,---,0.00,VWS V13.01,2013-08-25 13:18:00,
2013-08-25 09:23:00,69.5,60.9,30.34,SW,218,1.0,2.0,74,0.00,,---,0.00,VWS V13.01,2013-08-25 13:23:00,
2013-08-25 09:28:00,69.9,60.9,30.34,SW,215,4.0,4.0,73,0.00,,---,0.00,VWS V13.01,2013-08-25 13:28:00,
2013-08-25 09:33:00,70.4,61.7,30.34,WSW,248,1.0,4.0,74,0.00,,---,0.00,VWS V13.01,2013-08-25 13:33:00,
2013-08-25 09:38:00,70.9,61.8,30.33,WSW,252,2.0,4.0,73,0.00,,---,0.00,VWS V13.01,2013-08-25 13:38:00,
2013-08-25 09:43:00,71.3,61.8,30.33,SW,227,3.0,4.0,72,0.00,,---,0.00,VWS V13.01,2013-08-25 13:43:00,
2013-08-25 09:48:00,71.7,62.6,30.33,WSW,247,1.0,5.0,73,0.00,,---,0.00,VWS V13.01,2013-08-25 13:48:00,
2013-08-25 09:53:00,72.2,61.9,30.33,WSW,242,3.0,9.0,70,0.00,,---,0.00,VWS V13.01,2013-08-25 13:53:00,
2013-08-25 09:58:00,72.7,62.0,30.33,SW,219,7.0,10.0,69,0.00,,---,0.00,VWS V13.01,2013-08-25 13:58:00,
2013-08-25 10:03:00,73.1,61.9,30.33,West,270,3.0,9.0,68,0.00,,---,0.00,VWS V13.01,2013-08-25 14:03:00,
2013-08-25 10:08:00,73.2,62.0,30.33,WSW,239,6.0,9.0,68,0.00,,---,0.00,VWS V13.01,2013-08-25 14:08:00,
2013-08-25 10:13:00,73.1,61.5,30.33,SSW,202,5.0,13.0,67,0.00,,---,0.00,VWS V13.01,2013-08-25 14:13:00,
2013-08-25 10:18:00,73.3,61.7,30.33,SSW,200,5.0,13.0,67,0.00,,---,0.00,VWS V13.01,2013-08-25 14:18:00,
2013-08-25 10:23:00,73.7,62.1,30.33,SW,219,8.0,11.0,67,0.00,,---,0.00,VWS V13.01,2013-08-25 14:23:00,
2013-08-25 10:28:00,73.9,61.4,30.33,SW,217,6.0,11.0,65,0.00,,---,0.00,VWS V13.01,2013-08-25 14:28:00,
2013-08-25 10:33:00,73.8,61.3,30.33,WSW,252,4.0,11.0,65,0.00,,---,0.00,VWS V13.01,2013-08-25 14:33:00,
2013-08-25 10:38:00,74.0,61.5,30.33,SW,223,6.0,13.0,65,0.00,,---,0.00,VWS V13.01,2013-08-25 14:38:00,
2013-08-25 10:43:00,74.2,62.1,30.33,WSW,240,5.0,12.0,66,0.00,,---,0.00,VWS V13.01,2013-08-25 14:43:00,
2013-08-25 10:48:00,74.4,61.4,30.33,SW,224,6.0,12.0,64,0.00,,---,0.00,VWS V13.01,2013-08-25 14:48:00,
2013-08-25 10:53:00,74.4,61.9,30.33,SW,215,4.0,12.0,65,0.00,,---,0.00,VWS V13.01,2013-08-25 14:53:00,
2013-08-25 10:58:00,74.9,62.3,30.33,SSW,206,5.0,12.0,65,0.00,,---,0.00,VWS V13.01,2013-08-25 14:58:00,
2013-08-25 11:03:00,75.3,62.3,30.33,SW,219,5.0,12.0,64,0.00,,---,0.00,VWS V13.01,2013-08-25 15:03:00,
2013-08-25 11:08:00,75.5,62.5,30.33,SW,216,7.0,12.0,64,0.00,,---,0.00,VWS V13.01,2013-08-25 15:08:00,
2013-08-25 11:13:00,75.6,62.1,30.33,SSW,206,4.0,9.0,63,0.00,,---,0.00,VWS V13.01,2013-08-25 15:13:00,
2013-08-25 11:18:00,75.8,62.8,30.33,SW,223,7.0,12.0,64,0.00,,---,0.00,VWS V13.01,2013-08-25 15:18:00,
2013-08-25 11:23:00,75.8,63.2,30.33,SW,229,4.0,11.0,65,0.00,,---,0.00,VWS V13.01,2013-08-25 15:23:00,
2013-08-25 11:28:00,76.2,63.1,30.33,SW,224,5.0,11.0,64,0.00,,---,0.00,VWS V13.01,2013-08-25 15:28:00,
2013-08-25 11:33:00,76.4,62.4,30.33,SW,217,4.0,10.0,62,0.00,,---,0.00,VWS V13.01,2013-08-25 15:33:00,
2013-08-25 11:38:00,76.4,62.9,30.33,SW,221,3.0,10.0,63,0.00,,---,0.00,VWS V13.01,2013-08-25 15:38:00,
2013-08-25 11:43:00,76.6,63.1,30.33,SW,226,2.0,12.0,63,0.00,,---,0.00,VWS V13.01,2013-08-25 15:43:00,
2013-08-25 11:48:00,76.8,62.8,30.32,South,191,7.0,12.0,62,0.00,,---,0.00,VWS V13.01,2013-08-25 15:48:00,
2013-08-25 11:53:00,77.0,63.5,30.32,SSW,197,6.0,10.0,63,0.00,,---,0.00,VWS V13.01,2013-08-25 15:53:00,
2013-08-25 11:58:00,77.2,63.2,30.32,SSE,156,6.0,11.0,62,0.00,,---,0.00,VWS V13.01,2013-08-25 15:58:00,
2013-08-25 12:03:00,77.3,63.3,30.33,West,259,6.0,9.0,62,0.00,,---,0.00,VWS V13.01,2013-08-25 16:03:00,
2013-08-25 12:08:00,77.3,63.3,30.33,SW,220,4.0,9.0,62,0.00,,---,0.00,VWS V13.01,2013-08-25 16:08:00,
2013-08-25 12:13:00,77.6,63.1,30.32,SSW,209,5.0,11.0,61,0.00,,---,0.00,VWS V13.01,2013-08-25 16:13:00,
2013-08-25 12:18:00,77.7,62.7,30.32,WSW,247,6.0,11.0,60,0.00,,---,0.00,VWS V13.01,2013-08-25 16:18:00,
2013-08-25 12:23:00,77.8,63.8,30.32,SW,234,7.0,9.0,62,0.00,,---,0.00,VWS V13.01,2013-08-25 16:23:00,
2013-08-25 12:28:00,78.2,63.7,30.32,SW,217,4.0,11.0,61,0.00,,---,0.00,VWS V13.01,2013-08-25 16:28:00,
2013-08-25 12:33:00,78.6,64.5,30.32,SW,225,4.0,9.0,62,0.00,,---,0.00,VWS V13.01,2013-08-25 16:33:00,
2013-08-25 12:38:00,78.8,63.8,30.32,SW,221,5.0,9.0,60,0.00,,---,0.00,VWS V13.01,2013-08-25 16:38:00,
2013-08-25 12:43:00,78.9,62.9,30.31,SSW,197,6.0,7.0,58,0.00,,---,0.00,VWS V13.01,2013-08-25 16:43:00,
2013-08-25 12:48:00,79.2,63.7,30.31,SSW,205,7.0,10.0,59,0.00,,---,0.00,VWS V13.01,2013-08-25 16:48:00,
2013-08-25 12:53:00,79.0,63.9,30.31,SW,214,4.0,7.0,60,0.00,,---,0.00,VWS V13.01,2013-08-25 16:53:00,
2013-08-25 12:58:00,79.0,63.0,30.31,SSE,154,10.0,10.0,58,0.00,,---,0.00,VWS V13.01,2013-08-25 16:58:00,
2013-08-25 13:03:00,79.2,63.7,30.31,SW,225,8.0,11.0,59,0.00,,---,0.00,VWS V13.01,2013-08-25 17:03:00,
2013-08-25 13:08:00,79.6,63.5,30.30,SSW,205,5.0,11.0,58,0.00,,---,0.00,VWS V13.01,2013-08-25 17:08:00,
2013-08-25 13:13:00,80.0,62.9,30.31,SSW,209,7.0,9.0,56,0.00,,---,0.00,VWS V13.01,2013-08-25 17:13:00,
2013-08-25 13:18:00,80.1,62.5,30.30,SW,220,5.0,10.0,55,0.00,,---,0.00,VWS V13.01,2013-08-25 17:18:00,
2013-08-25 13:23:00,80.1,62.0,30.30,WSW,240,5.0,12.0,54,0.00,,---,0.00,VWS V13.01,2013-08-25 17:23:00,
2013-08-25 13:28:00,79.2,62.2,30.30,SW,218,2.0,12.0,56,0.00,,---,0.00,VWS V13.01,2013-08-25 17:28:00,
2013-08-25 13:33:00,79.3,63.3,30.30,SW,214,6.0,8.0,58,0.00,,---,0.00,VWS V13.01,2013-08-25 17:33:00,
2013-08-25 13:38:00,79.8,62.2,30.30,SW,216,4.0,10.0,55,0.00,,---,0.00,VWS V13.01,2013-08-25 17:38:00,
2013-08-25 13:43:00,79.8,62.2,30.30,WSW,240,4.0,8.0,55,0.00,,---,0.00,VWS V13.01,2013-08-25 17:43:00,
2013-08-25 13:48:00,80.1,61.4,30.30,SSW,202,7.0,11.0,53,0.00,,---,0.00,VWS V13.01,2013-08-25 17:48:00,
2013-08-25 13:53:00,80.3,60.5,30.30,South,188,4.0,11.0,51,0.00,,---,0.00,VWS V13.01,2013-08-25 17:53:00,
2013-08-25 13:58:00,80.4,61.2,30.29,SW,220,6.0,11.0,52,0.00,,---,0.00,VWS V13.01,2013-08-25 17:58:00,
2013-08-25 14:03:00,80.6,61.4,30.29,SSW,209,5.0,10.0,52,0.00,,---,0.00,VWS V13.01,2013-08-25 18:03:00,
2013-08-25 14:08:00,80.7,60.9,30.29,South,187,4.0,11.0,51,0.00,,---,0.00,VWS V13.01,2013-08-25 18:08:00,
2013-08-25 14:13:00,81.0,61.7,30.29,South,180,2.0,7.0,52,0.00,,---,0.00,VWS V13.01,2013-08-25 18:13:00,
2013-08-25 14:18:00,80.6,60.8,30.29,SSW,200,3.0,8.0,51,0.00,,---,0.00,VWS V13.01,2013-08-25 18:18:00,
2013-08-25 14:23:00,80.7,62.0,30.29,SW,219,5.0,7.0,53,0.00,,---,0.00,VWS V13.01,2013-08-25 18:23:00,
2013-08-25 14:28:00,81.2,60.8,30.29,SW,219,4.0,12.0,50,0.00,,---,0.00,VWS V13.01,2013-08-25 18:28:00,
2013-08-25 14:33:00,81.6,61.2,30.29,South,180,3.0,7.0,50,0.00,,---,0.00,VWS V13.01,2013-08-25 18:33:00,
2013-08-25 14:38:00,82.1,61.1,30.29,SW,227,8.0,11.0,49,0.00,,---,0.00,VWS V13.01,2013-08-25 18:38:00,
2013-08-25 14:43:00,82.1,61.1,30.29,SSW,204,7.0,8.0,49,0.00,,---,0.00,VWS V13.01,2013-08-25 18:43:00,
2013-08-25 14:48:00,81.9,61.5,30.29,SW,233,8.0,10.0,50,0.00,,---,0.00,VWS V13.01,2013-08-25 18:48:00,
2013-08-25 14:53:00,81.9,60.9,30.29,SW,215,5.0,11.0,49,0.00,,---,0.00,VWS V13.01,2013-08-25 18:53:00,
2013-08-25 14:58:00,81.6,61.2,30.28,SW,215,3.0,11.0,50,0.00,,---,0.00,VWS V13.01,2013-08-25 18:58:00,
2013-08-25 15:03:00,81.1,61.3,30.28,WNW,288,1.0,5.0,51,0.00,,---,0.00,VWS V13.01,2013-08-25 19:03:00,
2013-08-25 15:08:00,80.7,62.0,30.28,SW,235,3.0,5.0,53,0.00,,---,0.00,VWS V13.01,2013-08-25 19:08:00,
2013-08-25 15:13:00,81.3,61.5,30.28,SW,233,2.0,4.0,51,0.00,,---,0.00,VWS V13.01,2013-08-25 19:13:00,
2013-08-25 15:18:00,81.5,60.5,30.28,WSW,243,3.0,8.0,49,0.00,,---,0.00,VWS V13.01,2013-08-25 19:18:00,
2013-08-25 15:23:00,81.6,61.2,30.27,NW,321,2.0,7.0,50,0.00,,---,0.00,VWS V13.01,2013-08-25 19:23:00,
2013-08-25 15:28:00,81.2,59.7,30.27,WNW,294,3.0,7.0,48,0.00,,---,0.00,VWS V13.01,2013-08-25 19:28:00,
2013-08-25 15:33:00,80.9,60.5,30.27,West,275,3.0,7.0,50,0.00,,---,0.00,VWS V13.01,2013-08-25 19:33:00,
2013-08-25 15:38:00,81.0,61.2,30.27,SW,232,2.0,7.0,51,0.00,,---,0.00,VWS V13.01,2013-08-25 19:38:00,
2013-08-25 15:43:00,81.5,62.2,30.26,SW,232,7.0,8.0,52,0.00,,---,0.00,VWS V13.01,2013-08-25 19:43:00,
2013-08-25 15:48:00,81.5,61.1,30.26,SW,217,4.0,12.0,50,0.00,,---,0.00,VWS V13.01,2013-08-25 19:48:00,
2013-08-25 15:53:00,80.9,61.1,30.26,SW,225,2.0,7.0,51,0.00,,---,0.00,VWS V13.01,2013-08-25 19:53:00,
2013-08-25 15:58:00,81.0,61.7,30.26,SSW,200,7.0,10.0,52,0.00,,---,0.00,VWS V13.01,2013-08-25 19:58:00,
2013-08-25 16:03:00,81.2,61.9,30.26,SSW,200,5.0,9.0,52,0.00,,---,0.00,VWS V13.01,2013-08-25 20:03:00,
2013-08-25 16:08:00,81.6,62.8,30.25,SW,229,8.0,9.0,53,0.00,,---,0.00,VWS V13.01,2013-08-25 20:08:00,
2013-08-25 16:13:00,81.9,62.0,30.25,WSW,237,1.0,9.0,51,0.00,,---,0.00,VWS V13.01,2013-08-25 20:13:00,
2013-08-25 16:18:00,82.0,61.5,30.25,SSW,213,3.0,11.0,50,0.00,,---,0.00,VWS V13.01,2013-08-25 20:18:00,
2013-08-25 16:23:00,81.6,61.2,30.25,South,175,3.0,7.0,50,0.00,,---,0.00,VWS V13.01,2013-08-25 20:23:00,
2013-08-25 16:28:00,81.2,60.8,30.25,SSW,209,7.0,11.0,50,0.00,,---,0.00,VWS V13.01,2013-08-25 20:28:00,
2013-08-25 16:33:00,81.2,61.9,30.25,SW,225,4.0,7.0,52,0.00,,---,0.00,VWS V13.01,2013-08-25 20:33:00,
2013-08-25 16:38:00,81.7,61.3,30.25,WSW,239,4.0,7.0,50,0.00,,---,0.00,VWS V13.01,2013-08-25 20:38:00,
2013-08-25 16:43:00,82.1,62.2,30.25,WSW,248,8.0,12.0,51,0.00,,---,0.00,VWS V13.01,2013-08-25 20:43:00,
2013-08-25 16:48:00,82.3,61.8,30.25,SSW,204,4.0,12.0,50,0.00,,---,0.00,VWS V13.01,2013-08-25 20:48:00,
2013-08-25 16:53:00,82.3,63.5,30.25,WNW,284,4.0,6.0,53,0.00,,---,0.00,VWS V13.01,2013-08-25 20:53:00,
2013-08-25 16:58:00,82.4,62.5,30.24,WSW,241,6.0,10.0,51,0.00,,---,0.00,VWS V13.01,2013-08-25 20:58:00,
2013-08-25 17:03:00,82.2,62.3,30.24,SW,223,4.0,8.0,51,0.00,,---,0.00,VWS V13.01,2013-08-25 21:03:00,
2013-08-25 17:08:00,82.1,61.6,30.24,SW,222,6.0,10.0,50,0.00,,---,0.00,VWS V13.01,2013-08-25 21:08:00,
2013-08-25 17:13:00,81.8,61.4,30.23,SSW,203,5.0,9.0,50,0.00,,---,0.00,VWS V13.01,2013-08-25 21:13:00,
2013-08-25 17:18:00,81.5,61.1,30.24,SSW,211,4.0,9.0,50,0.00,,---,0.00,VWS V13.01,2013-08-25 21:18:00,
2013-08-25 17:23:00,81.2,61.4,30.23,WSW,239,3.0,8.0,51,0.00,,---,0.00,VWS V13.01,2013-08-25 21:23:00,
2013-08-25 17:28:00,81.0,61.2,30.23,SW,223,5.0,8.0,51,0.00,,---,0.00,VWS V13.01,2013-08-25 21:28:00,
2013-08-25 17:33:00,81.4,62.1,30.24,SW,224,7.0,9.0,52,0.00,,---,0.00,VWS V13.01,2013-08-25 21:33:00,
2013-08-25 17:38:00,81.4,61.0,30.24,SSW,207,7.0,11.0,50,0.00,,---,0.00,VWS V13.01,2013-08-25 21:38:00,
2013-08-25 17:43:00,81.3,61.5,30.23,SW,224,5.0,7.0,51,0.00,,---,0.00,VWS V13.01,2013-08-25 21:43:00,
2013-08-25 17:48:00,81.3,61.5,30.23,SW,216,6.0,11.0,51,0.00,,---,0.00,VWS V13.01,2013-08-25 21:48:00,
2013-08-25 17:53:00,81.2,61.4,30.23,SW,229,9.0,9.0,51,0.00,,---,0.00,VWS V13.01,2013-08-25 21:53:00,
2013-08-25 17:58:00,81.0,60.6,30.23,SW,216,7.0,9.0,50,0.00,,---,0.00,VWS V13.01,2013-08-25 21:58:00,
2013-08-25 18:03:00,80.9,61.1,30.23,SW,226,6.0,8.0,51,0.00,,---,0.00,VWS V13.01,2013-08-25 22:03:00,
2013-08-25 18:08:00,80.8,61.0,30.23,SSW,202,5.0,8.0,51,0.00,,---,0.00,VWS V13.01,2013-08-25 22:08:00,
2013-08-25 18:13:00,80.8,61.5,30.23,SSW,194,6.0,8.0,52,0.00,,---,0.00,VWS V13.01,2013-08-25 22:13:00,
2013-08-25 18:18:00,80.7,61.5,30.23,WSW,246,4.0,9.0,52,0.00,,---,0.00,VWS V13.01,2013-08-25 22:18:00,
2013-08-25 18:23:00,80.4,61.7,30.22,SW,215,4.0,9.0,53,0.00,,---,0.00,VWS V13.01,2013-08-25 22:23:00,
2013-08-25 18:28:00,80.3,61.1,30.22,SSW,202,6.0,9.0,52,0.00,,---,0.00,VWS V13.01,2013-08-25 22:28:00,
2013-08-25 18:33:00,80.1,61.4,30.22,SSW,207,5.0,6.0,53,0.00,,---,0.00,VWS V13.01,2013-08-25 22:33:00,
2013-08-25 18:38:00,80.1,62.0,30.22,SW,223,2.0,6.0,54,0.00,,---,0.00,VWS V13.01,2013-08-25 22:38:00,
2013-08-25 18:43:00,79.9,61.8,30.22,SSW,201,5.0,7.0,54,0.00,,---,0.00,VWS V13.01,2013-08-25 22:43:00,
2013-08-25 18:48:00,79.6,62.0,30.22,SW,217,4.0,8.0,55,0.00,,---,0.00,VWS V13.01,2013-08-25 22:48:00,
2013-08-25 18:53:00,79.4,62.3,30.22,SW,221,3.0,5.0,56,0.00,,---,0.00,VWS V13.01,2013-08-25 22:53:00,
2013-08-25 18:58:00,79.3,61.8,30.22,SSW,205,4.0,7.0,55,0.00,,---,0.00,VWS V13.01,2013-08-25 22:58:00,
2013-08-25 19:03:00,79.0,61.5,30.22,WSW,243,5.0,9.0,55,0.00,,---,0.00,VWS V13.01,2013-08-25 23:03:00,
2013-08-25 19:09:00,78.5,62.0,30.22,SW,215,2.0,9.0,57,0.00,,---,0.00,VWS V13.01,2013-08-25 23:09:00,
2013-08-25 19:14:00,78.0,61.5,30.22,SW,226,4.0,8.0,57,0.00,,---,0.00,VWS V13.01,2013-08-25 23:14:00,
2013-08-25 19:19:00,77.6,61.7,30.21,SSW,207,3.0,8.0,58,0.00,,---,0.00,VWS V13.01,2013-08-25 23:19:00,
2013-08-25 19:24:00,77.3,61.9,30.21,SW,222,2.0,6.0,59,0.00,,---,0.00,VWS V13.01,2013-08-25 23:24:00,
2013-08-25 19:29:00,76.9,61.5,30.21,SSW,211,2.0,6.0,59,0.00,,---,0.00,VWS V13.01,2013-08-25 23:29:00,
2013-08-25 19:34:00,76.7,61.8,30.21,SSW,207,5.0,6.0,60,0.00,,---,0.00,VWS V13.01,2013-08-25 23:34:00,
2013-08-25 19:39:00,76.4,61.5,30.21,SW,232,2.0,6.0,60,0.00,,---,0.00,VWS V13.01,2013-08-25 23:39:00,
2013-08-25 19:44:00,76.2,62.2,30.22,WSW,244,3.0,4.0,62,0.00,,---,0.00,VWS V13.01,2013-08-25 23:44:00,
2013-08-25 19:49:00,75.9,62.0,30.22,SW,226,2.0,4.0,62,0.00,,---,0.00,VWS V13.01,2013-08-25 23:49:00,
2013-08-25 19:54:00,75.6,62.1,30.22,SW,226,0.0,0.0,63,0.00,,---,0.00,VWS V13.01,2013-08-25 23:54:00,
2013-08-25 19:59:00,75.1,63.0,30.22,SW,226,0.0,0.0,66,0.00,,---,0.00,VWS V13.01,2013-08-25 23:59:00,
2013-08-25 20:04:00,74.6,62.9,30.21,SW,226,0.0,1.0,67,0.00,,---,0.00,VWS V13.01,2013-08-26 00:04:00,
2013-08-25 20:09:00,74.1,63.3,30.22,SW,226,0.0,1.0,69,0.00,,---,0.00,VWS V13.01,2013-08-26 00:09:00,
2013-08-25 20:14:00,73.7,63.3,30.22,SW,226,0.0,1.0,70,0.00,,---,0.00,VWS V13.01,2013-08-26 00:14:00,
2013-08-25 20:19:00,73.2,63.2,30.22,SW,226,1.0,2.0,71,0.00,,---,0.00,VWS V13.01,2013-08-26 00:19:00,
2013-08-25 20:24:00,72.7,62.8,30.22,SW,221,1.0,2.0,71,0.00,,---,0.00,VWS V13.01,2013-08-26 00:24:00,
2013-08-25 20:29:00,72.3,62.8,30.21,SSW,205,1.0,2.0,72,0.00,,---,0.00,VWS V13.01,2013-08-26 00:29:00,
2013-08-25 20:34:00,71.9,62.4,30.21,SSW,204,0.0,3.0,72,0.00,,---,0.00,VWS V13.01,2013-08-26 00:34:00,
2013-08-25 20:39:00,71.6,62.5,30.22,South,191,0.0,3.0,73,0.00,,---,0.00,VWS V13.01,2013-08-26 00:39:00,
2013-08-25 20:44:00,71.4,62.3,30.22,South,191,0.0,3.0,73,0.00,,---,0.00,VWS V13.01,2013-08-26 00:44:00,
2013-08-25 20:49:00,71.1,62.4,30.22,South,191,1.0,3.0,74,0.00,,---,0.00,VWS V13.01,2013-08-26 00:49:00,
2013-08-25 20:54:00,70.8,62.1,30.21,South,191,0.0,2.0,74,0.00,,---,0.00,VWS V13.01,2013-08-26 00:54:00,
2013-08-25 20:59:00,70.6,62.3,30.22,SSW,194,1.0,3.0,75,0.00,,---,0.00,VWS V13.01,2013-08-26 00:59:00,
2013-08-25 21:04:00,70.4,62.1,30.22,SSW,194,2.0,2.0,75,0.00,,---,0.00,VWS V13.01,2013-08-26 01:04:00,
2013-08-25 21:09:00,70.2,61.9,30.22,SSW,194,0.0,2.0,75,0.00,,---,0.00,VWS V13.01,2013-08-26 01:09:00,
2013-08-25 21:14:00,69.9,62.4,30.22,SSW,194,0.0,0.0,77,0.00,,---,0.00,VWS V13.01,2013-08-26 01:14:00,
2013-08-25 21:19:00,69.7,62.2,30.23,SSW,194,0.0,0.0,77,0.00,,---,0.00,VWS V13.01,2013-08-26 01:19:00,
2013-08-25 21:24:00,69.3,62.2,30.23,SSW,194,0.0,0.0,78,0.00,,---,0.00,VWS V13.01,2013-08-26 01:24:00,
2013-08-25 21:29:00,68.9,61.8,30.22,SSW,194,1.0,1.0,78,0.00,,---,0.00,VWS V13.01,2013-08-26 01:29:00,
2013-08-25 21:34:00,68.6,61.8,30.23,SSW,194,0.0,2.0,79,0.00,,---,0.00,VWS V13.01,2013-08-26 01:34:00,
2013-08-25 21:39:00,68.4,62.0,30.23,SSW,194,0.0,2.0,80,0.00,,---,0.00,VWS V13.01,2013-08-26 01:39:00,
2013-08-25 21:44:00,68.2,62.2,30.23,SSW,194,0.0,0.0,81,0.00,,---,0.00,VWS V13.01,2013-08-26 01:44:00,
2013-08-25 21:49:00,67.8,61.8,30.23,SSW,194,0.0,0.0,81,0.00,,---,0.00,VWS V13.01,2013-08-26 01:49:00,
2013-08-25 21:54:00,67.6,61.9,30.23,SSW,194,0.0,0.0,82,0.00,,---,0.00,VWS V13.01,2013-08-26 01:54:00,
2013-08-25 21:59:00,67.3,62.0,30.23,SSW,194,0.0,0.0,83,0.00,,---,0.00,VWS V13.01,2013-08-26 01:59:00,
2013-08-25 22:04:00,67.1,61.8,30.23,SSW,194,0.0,1.0,83,0.00,,---,0.00,VWS V13.01,2013-08-26 02:04:00,
2013-08-25 22:09:00,67.0,61.7,30.23,SSW,194,0.0,1.0,83,0.00,,---,0.00,VWS V13.01,2013-08-26 02:09:00,
2013-08-25 22:14:00,66.8,61.8,30.24,SSW,194,0.0,0.0,84,0.00,,---,0.00,VWS V13.01,2013-08-26 02:14:00,
2013-08-25 22:19:00,66.5,61.2,30.24,SSW,194,0.0,0.0,83,0.00,,---,0.00,VWS V13.01,2013-08-26 02:19:00,
2013-08-25 22:24:00,66.3,61.3,30.24,SSW,194,0.0,0.0,84,0.00,,---,0.00,VWS V13.01,2013-08-26 02:24:00,
2013-08-25 22:29:00,66.0,61.0,30.24,SSW,194,0.0,0.0,84,0.00,,---,0.00,VWS V13.01,2013-08-26 02:29:00,
2013-08-25 22:34:00,65.7,61.1,30.24,SSW,194,0.0,0.0,85,0.00,,---,0.00,VWS V13.01,2013-08-26 02:34:00,
2013-08-25 22:39:00,65.5,60.9,30.24,SSW,194,0.0,0.0,85,0.00,,---,0.00,VWS V13.01,2013-08-26 02:39:00,
2013-08-25 22:44:00,65.3,60.7,30.24,SSW,194,0.0,0.0,85,0.00,,---,0.00,VWS V13.01,2013-08-26 02:44:00,
2013-08-25 22:49:00,65.1,60.8,30.24,SSW,194,0.0,0.0,86,0.00,,---,0.00,VWS V13.01,2013-08-26 02:49:00,
2013-08-25 22:54:00,64.9,60.6,30.24,SSW,194,0.0,0.0,86,0.00,,---,0.00,VWS V13.01,2013-08-26 02:54:00,
2013-08-25 22:59:00,64.7,60.4,30.24,SSW,194,0.0,0.0,86,0.00,,---,0.00,VWS V13.01,2013-08-26 02:59:00,
2013-08-25 23:04:00,64.6,60.3,30.24,SSW,194,0.0,0.0,86,0.00,,---,0.00,VWS V13.01,2013-08-26 03:04:00,
2013-08-25 23:09:00,64.4,60.5,30.24,SSW,194,0.0,0.0,87,0.00,,---,0.00,VWS V13.01,2013-08-26 03:09:00,
2013-08-25 23:14:00,64.3,60.7,30.24,SSW,194,0.0,0.0,88,0.00,,---,0.00,VWS V13.01,2013-08-26 03:14:00,
2013-08-25 23:19:00,64.2,60.6,30.24,SSW,194,0.0,0.0,88,0.00,,---,0.00,VWS V13.01,2013-08-26 03:19:00,
2013-08-25 23:24:00,64.0,60.1,30.24,SSW,194,0.0,0.0,87,0.00,,---,0.00,VWS V13.01,2013-08-26 03:24:00,
2013-08-25 23:29:00,63.8,60.2,30.24,SSW,194,0.0,0.0,88,0.00,,---,0.00,VWS V13.01,2013-08-26 03:29:00,
2013-08-25 23:34:00,63.6,60.0,30.23,SSW,194,0.0,0.0,88,0.00,,---,0.00,VWS V13.01,2013-08-26 03:34:00,
2013-08-25 23:39:00,63.4,59.8,30.23,SSW,194,0.0,0.0,88,0.00,,---,0.00,VWS V13.01,2013-08-26 03:39:00,
2013-08-25 23:44:00,63.2,59.6,30.23,SSW,194,0.0,0.0,88,0.00,,---,0.00,VWS V13.01,2013-08-26 03:44:00,
2013-08-25 23:49:00,63.1,59.8,30.23,SSW,194,0.0,0.0,89,0.00,,---,0.00,VWS V13.01,2013-08-26 03:49:00,
2013-08-25 23:54:00,62.9,59.6,30.23,SSW,194,0.0,0.0,89,0.00,,---,0.00,VWS V13.01,2013-08-26 03:54:00,
2013-08-25 23:59:00,62.8,59.5,30.23,SSW,194,0.0,0.0,89,0.00,,---,0.00,VWS V13.01,2013-08-26 03:59:00,